Wetterstation Camping Dickerscheid
Wetterdaten: aktuell Dienstag, 12.12.2017 20:27
Datum Zeit Temp. Innen Temp. Auen Feuchte I. Feuchte A. Luftdruck Regen Wind W-Richtung W-Richtung Taupunkt Windchill Windben
12.12.2017 20:27 19,3 C -0,8 C 38 % 96 % 1011,2 hPa 0,0 mm 0,0 km/h (0 Bft) - - 0 -1,4 C -0,8 C 0,0 km/h (0 Bft)
12.12.2017 19:27 19,3 C -0,8 C 39 % 97 % 1011,0 hPa 0,0 mm 0,0 km/h (0 Bft) - - 0 -1,2 C -0,8 C 0,0 km/h (0 Bft)
12.12.2017 18:26 19,4 C -0,8 C 39 % 97 % 1010,0 hPa 0,0 mm 0,0 km/h (0 Bft) - - 0 -1,2 C -0,8 C 0,0 km/h (0 Bft)
12.12.2017 17:24 19,3 C -0,7 C 39 % 97 % 1009,2 hPa 0,0 mm 0,0 km/h (0 Bft) - - 0 -1,1 C -0,7 C 0,0 km/h (0 Bft)
12.12.2017 16:21 19,3 C -0,4 C 39 % 97 % 1008,1 hPa 0,0 mm 0,0 km/h (0 Bft) - - 0 -0,8 C -0,4 C 0,0 km/h (0 Bft)
12.12.2017 15:16 19,6 C -0,2 C 39 % 97 % 1007,0 hPa 0,0 mm 0,0 km/h (0 Bft) - - 0 -0,6 C -0,2 C 0,0 km/h (0 Bft)
12.12.2017 14:10 19,4 C -0,1 C 38 % 97 % 1006,0 hPa 0,0 mm 0,0 km/h (0 Bft) - - 0 -0,5 C -0,1 C 0,0 km/h (0 Bft)
12.12.2017 13:02 19,4 C 0,1 C 39 % 97 % 1005,3 hPa 0,0 mm 0,0 km/h (0 Bft) - - 0 -0,3 C 0,1 C 0,0 km/h (0 Bft)
12.12.2017 12:00 19,4 C -0,1 C 39 % 98 % 1004,4 hPa 0,0 mm 0,0 km/h (0 Bft) - - 0 -0,4 C -0,1 C 0,0 km/h (0 Bft)
12.12.2017 10:54 19,3 C -0,2 C 39 % 98 % 1003,7 hPa 0,0 mm 0,0 km/h (0 Bft) - - 0 -0,5 C -0,2 C 0,0 km/h (0 Bft)
12.12.2017 09:46 19,2 C -0,6 C 39 % 98 % 1001,8 hPa 0,0 mm 0,0 km/h (0 Bft) - - 0 -0,9 C -0,6 C 0,0 km/h (0 Bft)
12.12.2017 08:43 19,1 C -0,8 C 39 % 98 % 1000,5 hPa 0,0 mm 0,0 km/h (0 Bft) - - 0 -1,1 C -0,8 C 0,0 km/h (0 Bft)
12.12.2017 07:37 19,3 C -1,0 C 39 % 98 % 999,0 hPa 0,0 mm 0,0 km/h (0 Bft) - - 0 -1,3 C -1,0 C 0,0 km/h (0 Bft)
12.12.2017 06:29 19,2 C -1,3 C 39 % 97 % 997,2 hPa 0,0 mm 0,0 km/h (0 Bft) - - 0 -1,7 C -1,3 C 0,0 km/h (0 Bft)
12.12.2017 05:19 19,0 C -1,2 C 39 % 98 % 994,4 hPa 0,0 mm 0,0 km/h (0 Bft) - - 0 -1,5 C -1,2 C 0,0 km/h (0 Bft)
12.12.2017 04:10 19,7 C -1,2 C 39 % 97 % 991,6 hPa 0,0 mm 0,0 km/h (0 Bft) - - 0 -1,6 C -1,2 C 0,0 km/h (0 Bft)
12.12.2017 03:09 19,3 C -1,4 C 39 % 97 % 989,0 hPa 0,0 mm 0,0 km/h (0 Bft) - - 0 -1,8 C -1,4 C 0,0 km/h (0 Bft)
12.12.2017 02:09 19,4 C -1,4 C 40 % 97 % 986,3 hPa 0,0 mm 0,0 km/h (0 Bft) - - 0 -1,8 C -1,4 C 0,0 km/h (0 Bft)
12.12.2017 01:09 19,7 C -0,8 C 40 % 97 % 983,6 hPa 0,0 mm 0,0 km/h (0 Bft) - - 0 -1,2 C -0,8 C 0,0 km/h (0 Bft)
12.12.2017 00:09 19,7 C 0,7 C 41 % 97 % 981,5 hPa 0,2 mm 0,0 km/h (0 Bft) - - 0 0,3 C 0,7 C 0,0 km/h (0 Bft)
11.12.2017 23:08 19,9 C 2,4 C 41 % 98 % 979,1 hPa 0,0 mm 0,0 km/h (0 Bft) - - 0 2,1 C 2,4 C 0,0 km/h (0 Bft)
11.12.2017 22:08 19,9 C 2,7 C 41 % 97 % 977,9 hPa 0,2 mm 0,0 km/h (0 Bft) - - 0 2,3 C 2,7 C 0,0 km/h (0 Bft)
11.12.2017 21:08 20,0 C 2,9 C 41 % 97 % 976,7 hPa 0,0 mm 0,0 km/h (0 Bft) - - 0 2,5 C 2,9 C 0,0 km/h (0 Bft)
11.12.2017 21:00 20,1 C 2,9 C 41 % 97 % 976,5 hPa 0,0 mm 0,0 km/h (0 Bft) - - 0 2,5 C 2,9 C 0,0 km/h (0 Bft)
_ Min-Zeit 06:40 02:59 13:34 20:13 21:01 - 21:00 - - 02:59 02:59 21:00
Minimum _ 18,9 C -1,5 C 38 % 96 % 976,4 hPa - 0,0 km/h (0 Bft) - - -1,9 C -1,5 C 0,0 km/h (0 Bft)
_ Max-Zeit 21:11 21:00 21:00 22:55 20:18 21:32 21:00 - - 21:00 21:00 21:00
Maximum _ 20,3 C 2,9 C 41 % 98 % 1011,3 hPa 0,2 mm 0,0 km/h
- - (0 Bft)
- - 2,5 C 2,9 C 0,0 km/h
- - (0 Bft)
Durchschnitt _ 19,4 C -0,0 C 39 % 97 % 995,7 hPa #0,4 mm 0,0 km/h (0 Bft) - - - -0,4 C -0,0 C 0,0 km/h (0 Bft)